Вернуться в каталог

FENGYUN 1C DEB

АктивенPO
NORAD 31763·DEBRIS·🇨🇳 China

Запущен May 10, 1999 с Taiyuan Satellite Launch Center

Loading…

Ближайшие Пролёты (ближайшие 24 часа)

TLE

СвежийSource: Space-Track

Эпоха: Sep 14, 2026, 11:18 UTC

1 31763U 99025CFN 26257.47132106  .00000379  00000-0  24968-3 0  9992
2 31763  98.5160 332.8175 0545135  74.7446 304.0829 13.50962735947282

Отслеживайте FENGYUN 1C DEB в реальном времени с AllMySat

Download on the App Store